DELTA 1 R/B, 3036

Orbit data source: Space-Track

DELTA 1 R/B, 3036 is space debris in SSO originally from a launch on Fri, 10 Nov 1967 UTC launched from the Air Force Western Test Range (AFWTR). Debris objects in space refer to the collection of defunct objects orbiting the Earth. Examples of debris include non-operational satellites, rocket bodies, and fragments generated from explosions, collisions, or faulty payload assembly.

Loading next visibility...
Identifier
3036, 1967-114B
Orbit
SSO
Country
Flag of USUS
Related business
Manufacturer
UTC
Mission
Spacecraft
Bus & Motor
FW4, Unknown motor
Mass
~40 kg wet, ~40 kg dry
Launch date (UTC)
1967-11-10 (58 years ago)
Launch vehicle
Unknown
Launch site
Air Force Western Test Range (AFWTR)
Object type
Payload
Rocket body
Debris
Shape & HBR
Unknown
Radar Cross Section
Medium (>0.1 m² and <1 m²)

Expand to show TLE details & history
Last TLE update: 8 hours ago

TLE from 8 hours ago
0 DELTA 1 R/B
1 03036U 67114B   26126.25379247 -.00000025  00000-0  13525-3 0  9994
2 03036 102.0078 226.8341 0047989 218.3879 166.8121 12.54138606677093
Epoch: 2026-05-06T06:05Z
TLE epoch observation values (Epoch: 2026-05-06T06:05:27.669Z)
Latitude
24.76034°
Longitude
-94.25037°
Altitude
1,486.5 km
Speed
7.106 km/s
True Right ascension
14h 44m 55s
True Declination
24° 38' 31"
Sunlit
Object was in full shadow at epoch
Visualization orbit readout
Latitude
Unknown
Longitude
Unknown
Altitude
Unknown
Speed
Unknown
Apparent Right ascension
Unknown
Apparent Declination
Unknown
Sunlit
N/A
Visualization observer readout
Local Sidereal Time
21:38:14
Azimuth
Unknown
Elevation
Unknown
Doppler factor
Unknown
Orbital elements
Apogee altitude
1,482.33 km
Perigee altitude
1,407.247 km
Semi-major axis
7,822.926 km
Eccentricity
0.0048
Inclination
102.0078°
RAAN
226.8341°
Arg. of periapsis
218.3879°
True anomaly
166.93683°
Mean anomaly
166.8121°
Eccentric anomaly
166.87454°
Mean motion
3.13682 °/min
Orbital period
114.77 mins
BSTAR
0.00013525
Loading maneuver chart data...
Computing Atmospheric mass density...
Loading historical data...
Loading historical data...
Loading historical data...
Loading historical data...
Loading historical data...
Loading historical data...
Loading historical data...
Other satellites on launch #114 in the year 1967 (1967-11-10 UTC)

Documentation

Showing up to 5 results
|